Powrót do katalogu

YINHE-8

AktywnyŁącznośćSSO
NORAD 57424·PAYLOAD·🇨🇳 China
Ta nazwa satelity nie została jeszcze potwierdzona przez oficjalne źródła.

Wystrzelony Jul 23, 2023 z Taiyuan Satellite Launch Center

Loading…

Następne Przeloty (najbliższe 24 godziny)

TLE

ŚwieżeSource: Space-Track

Epoka: Sep 14, 2026, 15:43 UTC

1 57424U 23104A   26257.65546133  .00008824  00000-0  24916-3 0  9994
2 57424  97.2619 324.7280 0007996 144.9777 215.1994 15.36568959175779

Śledź YINHE-8 w czasie rzeczywistym z AllMySat

Download on the App Store